Regional Weather Roundup
Issued by NWS Huntsville, AL

Home | Current Version | Previous Version | Text Only | Print | Product List | Glossary On
Versions: 1 2 3 4 5 6 7 8 9 10 11 12 13 14 15 16 17 18 19 20 21 22 23 24 25 26 27
000
ASUS44 KHUN 250810
RWRHUN

WEATHER ROUNDUP FOR THE TENNESSEE VALLEY
NATIONAL WEATHER SERVICE HUNTSVILLE AL
300 AM CDT SAT OCT 25 2014

ALZ001>004-250900-
NORTHWEST ALABAMA

CITY           SKY/WX    TMP DP  RH WIND       PRES   REMARKS
COURTLAND HCN    N/A     45 N/A N/A CALM        N/A
RUSSELLVILLE     N/A     41 N/A N/A MISG        N/A
SHOALS AIRPORT CLEAR     46  43  89 CALM      30.11S
SHOALS TVA RES   N/A     46 N/A N/A MISG        N/A
$$

ALZ005>007-016-250900-
NORTH CENTRAL ALABAMA

CITY           SKY/WX    TMP DP  RH WIND       PRES   REMARKS
CULLMAN AG STN   N/A     46 N/A N/A CALM        N/A
DECATUR AP     CLEAR     44  42  93 CALM      30.10S
HUNTSVILLE AP  CLEAR     48  43  82 CALM      30.09S
HUN NWS/UAH      N/A     48  44  83 CALM        N/A
MERIDIANVILLE  CLEAR     41  37  87 CALM      30.09S
VINEMONT AP    FAIR      43  42  97 CALM      30.10F
$$

ALZ008>010-250900-
NORTHEAST ALABAMA

CITY           SKY/WX    TMP DP  RH WIND       PRES   REMARKS
ALBERTVILLE    CLEAR     46  46 100 CALM      30.07S
FORT PAYNE     CLEAR     41  37  87 CALM      30.08S
SCOTTSBORO AP  CLEAR     45  43  93 CALM      30.09S
SCOTTSBORO HCN   N/A     43 N/A N/A MISG        N/A
VALLEY HEAD      N/A     39 N/A N/A MISG        N/A
$$

TNZ076-096-097-250900-
SOUTHEASTERN MIDDLE TENNESSEE

CITY           SKY/WX    TMP DP  RH WIND       PRES   REMARKS
TULLAHOMA      CLEAR     41  37  87 CALM      30.09F
WINCHESTER     CLEAR     43  41  93 CALM      30.09F
$$

...SURROUNDING SITES...

CITY           SKY/WX    TMP DP  RH WIND       PRES   REMARKS
ATLANTA        CLEAR     50  43  77 NW8       30.02S
ANNISTON       CLEAR     41  39  93 CALM      30.07S
BIRMINGHAM     CLEAR     46  42  86 CALM      30.09F
CHATTANOOGA    CLEAR     46  43  89 CALM      30.08S
CORINTH        FOG       48  46  93 CALM      30.09S VSB 1
DALTON         CLEAR     43  43 100 N3        30.05S
GADSDEN        CLEAR     43  37  81 CALM      30.07F
GOLDEN TRNGL   CLEAR    N/A N/A N/A W3        30.09S
HALEYVILLE     FAIR      43  43 100 CALM      30.12F
JACKSON TN     CLEAR     48  45  89 CALM      30.08F
MEMPHIS        CLEAR     57  53  86 CALM      30.08F
NASHVILLE      PTCLDY    47  45  93 S3        30.09S
OXFORD MS      FAIR      48  48 100 CALM      30.12S
ROME           CLEAR     43  41  93 CALM      30.06S
SAVANNAH         N/A     45  45 100 CALM      30.10S
TUPELO         CLEAR     50  48  93 CALM      30.10S
TUSCALOOSA     CLEAR     48  44  86 CALM      30.09S
$$

...GULF COAST WEATHER...

CITY           SKY/WX    TMP DP  RH WIND       PRES   REMARKS
GULFPORT       CLEAR     51  47  86 CALM      30.08S
PASCAGOULA     CLEAR     42  42 100 CALM      30.08S
MOBILE         CLEAR     52  45  77 N6        30.08S
GULF SHORES    SUNNY     54  46  75 CALM      30.05S
PENSACOLA      CLEAR     53  46  77 N6        30.04F
DESTIN         CLEAR     61  48  62 N8        30.03F
PANAMA CITY    CLEAR     57  49  74 N8        30.02S
APPALACHICOLA  CLEAR     55  48  77 CALM      30.00F
$$




USA.gov is the U.S. government's official web portal to all federal, state and local government web resources and services.